Date String (YYYY-MM-DD hh:mm:ss) UTC,Instrument flags,absolute air pressure of the measurement (hPa),sample flow rate (lpm),inlet stack bypass flow (lpm),air temperature of the measurement (°C),ambient temperature measured by the external sensor (°C),aerosol sample conditioner tube jacket temperature (°C),OPC LED temperature (°C),internal box temperature (°C),relative humidity of the measurement (%),span deviation,mass concentration of particles derived from Lorenz-Mie calculation of OPC scattering (μg/m³),mass concentration of particles derived from Lorenz-Mie calculation of OPC scattering (μg/m³),mass concentration of particles derived from Lorenz-Mie calculation of OPC scattering (μg/m³)
DateTimeUTC,F1_M11,P_M11,Q1_M11,Q2_M11,T1_M11,T2_M11,T3_M11,T4_M11,T5_M11,U1_M11,ZSPAN_M11,X0_M11,X2_M11,X1_M11
2024-01-28 01:00:00,SystemResetWarning,0835.5,5.00,000.00,026.2,024.9,000.0,034.5,027.4,08.6,0000.0,0010.28,0003.48,0003.00
2024-01-28 01:01:00,SystemResetWarning,0835.7,5.00,000.00,026.1,024.8,000.0,034.5,027.4,08.6,0000.0,0009.42,0003.49,0002.99
2024-01-28 01:02:00,SystemResetWarning,0835.6,5.00,000.00,026.1,024.8,000.0,034.5,027.4,08.7,0000.0,0009.06,0003.48,0002.97
2024-01-28 01:03:00,SystemResetWarning,0835.6,5.00,000.00,026.1,024.8,000.0,034.5,027.4,08.7,0000.0,0008.68,0003.50,0002.96
2024-01-28 01:04:00,SystemResetWarning,0835.6,5.00,000.00,026.1,024.8,000.0,034.5,027.4,08.8,0000.0,0008.73,0003.50,0002.94
2024-01-28 01:05:00,SystemResetWarning,0835.6,5.00,000.00,026.1,024.8,000.0,034.5,027.4,08.7,0000.0,0008.53,0003.48,0002.93
2024-01-28 01:06:00,SystemResetWarning,0835.6,5.00,000.00,026.1,024.7,000.0,034.5,027.3,08.4,0000.0,0008.14,0003.46,0002.92
2024-01-28 01:07:00,SystemResetWarning,0835.6,4.99,000.00,026.1,024.7,000.0,034.5,027.3,08.4,0000.0,0007.44,0003.44,0002.92
2024-01-28 01:08:00,SystemResetWarning,0835.6,4.99,000.00,026.0,024.7,000.0,034.5,027.3,08.5,0000.0,0007.33,0003.43,0002.93
2024-01-28 01:09:00,SystemResetWarning,0835.7,5.00,000.00,026.0,024.7,000.0,034.4,027.3,08.6,0000.0,0007.16,0003.42,0002.93
2024-01-28 01:10:00,SystemResetWarning,0835.6,4.99,000.00,026.0,024.7,000.0,034.4,027.3,08.7,0000.0,0007.20,0003.41,0002.93
2024-01-28 01:11:00,SystemResetWarning,0835.8,5.00,000.00,026.0,024.6,000.0,034.4,027.3,08.7,0000.0,0006.36,0003.43,0002.95
2024-01-28 01:12:00,SystemResetWarning,0835.6,5.00,000.00,026.0,024.6,000.0,034.4,027.3,08.6,0000.0,0006.17,0003.42,0002.96
2024-01-28 01:13:00,SystemResetWarning,0835.6,5.00,000.00,026.0,024.6,000.0,034.4,027.2,08.5,0000.0,0006.14,0003.41,0002.97
2024-01-28 01:14:00,SystemResetWarning,0835.6,5.00,000.00,026.0,024.6,000.0,034.4,027.2,08.5,0000.0,0006.05,0003.39,0002.97
2024-01-28 01:15:00,SystemResetWarning,0835.6,5.00,000.00,026.0,024.6,000.0,034.4,027.2,08.5,0000.0,0005.98,0003.37,0002.95
2024-01-28 01:16:00,SystemResetWarning,0835.6,5.01,000.00,025.9,024.5,000.0,034.4,027.2,08.5,0000.0,0006.20,0003.40,0002.95
2024-01-28 01:17:00,SystemResetWarning,0835.6,5.00,000.00,025.9,024.5,000.0,034.3,027.2,08.5,0000.0,0007.30,0003.40,0002.95
2024-01-28 01:18:00,SystemResetWarning,0835.6,5.00,000.00,025.9,024.5,000.0,034.3,027.2,08.6,0000.0,0007.35,0003.39,0002.94
2024-01-28 01:19:00,SystemResetWarning,0835.6,5.01,000.00,025.9,024.5,000.0,034.3,027.2,08.7,0000.0,0007.30,0003.38,0002.94
2024-01-28 01:20:00,SystemResetWarning,0835.6,5.00,000.00,025.9,024.5,000.0,034.3,027.1,08.6,0000.0,0007.34,0003.41,0002.93
2024-01-28 01:21:00,SystemResetWarning,0835.6,5.00,000.00,025.8,024.5,000.0,034.3,027.1,08.5,0000.0,0007.79,0003.41,0002.91
2024-01-28 01:22:00,SystemResetWarning,0835.6,5.00,000.00,025.8,024.5,000.0,034.3,027.1,08.4,0000.0,0007.89,0003.41,0002.89
2024-01-28 01:23:00,SystemResetWarning,0835.6,5.00,000.00,025.8,024.4,000.0,034.2,027.1,08.3,0000.0,0007.87,0003.40,0002.88
2024-01-28 01:24:00,SystemResetWarning,0835.6,4.99,000.00,025.8,024.4,000.0,034.2,027.1,08.4,0000.0,0007.98,0003.41,0002.87
2024-01-28 01:25:00,SystemResetWarning,0835.6,4.99,000.00,025.8,024.4,000.0,034.2,027.1,08.5,0000.0,0008.07,0003.41,0002.86
2024-01-28 01:26:00,SystemResetWarning,0835.8,5.00,000.00,025.8,024.4,000.0,034.2,027.1,08.6,0000.0,0008.20,0003.46,0002.85
2024-01-28 01:27:00,SystemResetWarning,0835.6,5.00,000.00,025.8,024.3,000.0,034.2,027.1,08.5,0000.0,0008.13,0003.43,0002.85
2024-01-28 01:28:00,SystemResetWarning,0835.6,5.00,000.00,025.7,024.3,000.0,034.2,027.0,08.6,0000.0,0007.50,0003.43,0002.84
2024-01-28 01:29:00,SystemResetWarning,0835.6,5.00,000.00,025.7,024.3,000.0,034.2,027.0,08.5,0000.0,0007.07,0003.40,0002.82
2024-01-28 01:30:00,SystemResetWarning,0835.6,5.00,000.00,025.7,024.3,000.0,034.1,027.0,08.6,0000.0,0007.10,0003.39,0002.81
2024-01-28 01:31:00,SystemResetWarning,0835.7,5.01,000.00,025.7,024.2,000.0,034.1,027.0,08.7,0000.0,0007.56,0003.37,0002.81
2024-01-28 01:32:00,SystemResetWarning,0835.6,5.00,000.00,025.7,024.2,000.0,034.1,027.0,08.7,0000.0,0006.98,0003.36,0002.81
2024-01-28 01:33:00,SystemResetWarning,0835.7,5.00,000.00,025.7,024.2,000.0,034.1,026.9,08.6,0000.0,0006.50,0003.33,0002.79
2024-01-28 01:34:00,SystemResetWarning,0835.7,5.00,000.00,025.7,024.2,000.0,034.1,026.9,08.6,0000.0,0006.55,0003.33,0002.80
2024-01-28 01:35:00,SystemResetWarning,0835.7,5.00,000.00,025.6,024.2,000.0,034.1,026.9,08.5,0000.0,0006.91,0003.31,0002.78
2024-01-28 01:36:00,SystemResetWarning,0835.7,4.99,000.00,025.6,024.2,000.0,034.0,026.9,08.6,0000.0,0006.76,0003.28,0002.76
2024-01-28 01:37:00,SystemResetWarning,0835.6,4.99,000.00,025.6,024.2,000.0,034.0,026.9,08.6,0000.0,0006.68,0003.26,0002.77
2024-01-28 01:38:00,SystemResetWarning,0835.7,4.99,000.00,025.6,024.1,000.0,034.0,026.9,08.7,0000.0,0006.79,0003.27,0002.76
2024-01-28 01:39:00,SystemResetWarning,0835.7,5.00,000.00,025.6,024.1,000.0,034.0,026.9,08.6,0000.0,0006.94,0003.28,0002.75
2024-01-28 01:40:00,SystemResetWarning,0835.7,5.00,000.00,025.6,024.1,000.0,034.0,026.8,08.5,0000.0,0006.99,0003.29,0002.75
2024-01-28 01:41:00,SystemResetWarning,0835.7,5.00,000.00,025.5,024.1,000.0,034.0,026.8,08.5,0000.0,0006.83,0003.29,0002.74
2024-01-28 01:42:00,SystemResetWarning,0835.6,5.00,000.00,025.5,024.1,000.0,034.0,026.8,08.3,0000.0,0005.99,0003.28,0002.73
2024-01-28 01:43:00,SystemResetWarning,0835.6,5.00,000.00,025.5,024.0,000.0,033.9,026.8,08.2,0000.0,0006.05,0003.28,0002.73
2024-01-28 01:44:00,SystemResetWarning,0835.6,5.00,000.00,025.5,024.0,000.0,033.9,026.8,08.4,0000.0,0006.19,0003.31,0002.74
2024-01-28 01:45:00,SystemResetWarning,0835.6,5.00,000.00,025.5,024.0,000.0,033.9,026.8,08.4,0000.0,0006.35,0003.32,0002.74
2024-01-28 01:46:00,SystemResetWarning,0835.6,5.00,000.00,025.5,024.0,000.0,033.9,026.8,08.4,0000.0,0005.79,0003.33,0002.75
2024-01-28 01:47:00,SystemResetWarning,0835.6,5.00,000.00,025.5,024.0,000.0,033.9,026.8,08.4,0000.0,0005.73,0003.34,0002.77
2024-01-28 01:48:00,SystemResetWarning,0835.7,4.99,000.00,025.4,024.0,000.0,033.9,026.7,08.5,0000.0,0005.61,0003.32,0002.79
2024-01-28 01:49:00,SystemResetWarning,0835.6,5.00,000.00,025.4,024.0,000.0,033.9,026.7,08.6,0000.0,0005.45,0003.30,0002.80
2024-01-28 01:50:00,SystemResetWarning,0835.6,5.00,000.00,025.4,024.0,000.0,033.8,026.7,08.7,0000.0,0005.34,0003.28,0002.80
2024-01-28 01:51:00,SystemResetWarning,0835.7,4.99,000.00,025.4,024.0,000.0,033.8,026.7,08.6,0000.0,0005.28,0003.26,0002.81
2024-01-28 01:52:00,SystemResetWarning,0835.7,5.00,000.00,025.4,024.0,000.0,033.8,026.7,08.6,0000.0,0005.45,0003.28,0002.82
2024-01-28 01:53:00,SystemResetWarning,0835.7,5.00,000.00,025.4,023.9,000.0,033.8,026.7,08.5,0000.0,0005.32,0003.28,0002.84
2024-01-28 01:54:00,SystemResetWarning,0835.7,5.00,000.00,025.3,023.9,000.0,033.8,026.7,08.5,0000.0,0005.24,0003.30,0002.86
2024-01-28 01:55:00,SystemResetWarning,0835.6,5.00,000.00,025.3,023.9,000.0,033.8,026.7,08.5,0000.0,0005.08,0003.29,0002.88
2024-01-28 01:56:00,SystemResetWarning,0835.6,5.00,000.00,025.3,023.9,000.0,033.7,026.6,08.5,0000.0,0005.26,0003.27,0002.89
2024-01-28 01:57:00,SystemResetWarning,0835.7,4.99,000.00,025.3,023.9,000.0,033.7,026.6,08.6,0000.0,0006.06,0003.25,0002.90
2024-01-28 01:58:00,SystemResetWarning,0835.6,5.00,000.00,025.3,023.9,000.0,033.7,026.6,08.6,0000.0,0007.44,0003.25,0002.90
2024-01-28 01:59:00,SystemResetWarning,0835.6,5.00,000.00,025.3,023.8,000.0,033.7,026.6,08.5,0000.0,0007.48,0003.27,0002.89
